Flag for U.S.A. Weather past 2 weeks in Jersey City, New Jersey, U.S.A.

Now
74 °F

Mostly cloudy.


Feels Like: 74 °F
Forecast: 69 / 81 °F
Wind: 6 mph from West

Location: Newark International Airport

Current Time: Sep 21, 2014 at 2:38:40 PM

Latest Report: Sep 21, 2014 at 1:51 PM


Visibility: 6 mi

Pressure: 29.75 "Hg

Humidity: 82%

Dew point: 68 °F

Location of Jersey CityLocation

Historic Weather in Jersey City — Graph

°F

Jersey City temperature yesterday

Maximum temperature yesterday: 73 °F (at 1:51 PM)
Minimum temperature yesterday: 58 °F (at 6:51 AM)
Average temperature yesterday: 67 °F

Past Weeks' High & Low Weather Summary

 TemperatureHumidityPressure
High93 °F (Sep 6, 2:51 PM)97% (Sep 13, 7:51 PM)30.37 "Hg (Sep 13, 7:51 PM)
Low53 °F (Sep 14, 6:51 AM)32% (Sep 17, 2:51 PM)29.79 "Hg (Sep 21, 12:56 PM)
Average67 °F65%30.10 "Hg
* Reported Sep 6 12:51 PM — Sep 21 12:56 PM, Jersey City, Weather by CustomWeather, © 2014

Note: Actual official high and low records may vary slightly from our data, if they occured in-between our weather recording intervals... More about our weather records

Advertising

Jersey City weather history for previous 24 hours

 ConditionsComfort  
Time TempWeatherWind HumidityBarometerVisibility
12:56 PM
Sep 21
72 °FMostly cloudy.6 mph83%29.79 "Hg3 mi
11:51 AM72 °FCloudy.5 mph84%29.81 "Hg2 mi
10:51 AM71 °FFog.No wind87%29.85 "Hg2 mi
9:51 AM71 °FFog.No wind87%29.87 "Hg2 mi
8:51 AM70 °FFog.No wind90%29.88 "Hg2 mi
7:51 AM69 °FFog.No wind93%29.90 "Hg2 mi
6:51 AM68 °FFog.No wind93%29.90 "Hg6 mi
5:51 AM67 °FOvercast.No wind97%29.91 "Hg7 mi
4:51 AM67 °FOvercast.No wind97%29.93 "Hg8 mi
3:51 AM67 °FOvercast.3 mph97%29.95 "Hg8 mi
2:51 AM67 °FLight rain. Mostly cloudy.3 mph93%29.98 "Hg8 mi
1:58 AM70 °FLight rain. Fog.6 mph83%30.01 "Hg6 mi
12:51 AM70 °FMostly cloudy.No wind81%30.03 "Hg10 mi
11:51 PM
Sep 20
70 °FMostly cloudy.No wind84%30.06 "Hg10 mi
10:51 PM70 °FOvercast.No wind84%30.07 "Hg10 mi
9:51 PM69 °FPartly cloudy.6 mph84%30.09 "Hg10 mi
8:51 PM70 °FPassing clouds.7 mph79%30.11 "Hg10 mi
7:51 PM70 °FScattered clouds.7 mph76%30.11 "Hg10 mi
6:51 PM72 °FScattered clouds.9 mph66%30.11 "Hg10 mi
5:51 PM73 °FScattered clouds.9 mph59%30.13 "Hg10 mi
4:51 PM73 °FPartly sunny.12 mph64%30.15 "Hg10 mi
3:51 PM73 °FMostly cloudy.14 mph64%30.16 "Hg10 mi
2:51 PM73 °FPartly sunny.16 mph64%30.17 "Hg10 mi
Weather by CustomWeather, © 2014

See weather overviewHow to use our weather pages